| time (UTC) | temp C | wind direction | speed KPH | gust KPH | rain 1hr cm | rain 24hr cm | rain mn cm | humidity % | barometer mb |
| 20260504000501 | 25 | 203 | 12.9 | 20.9 | 0.00 | 0.00 | 0.00 | 34 | 1015.0 |
| 20260504000001 | 25 | 202 | 16.1 | 20.9 | 0.00 | 0.00 | 0.00 | 34 | 1015.0 |
| 20260503235002 | 25 | 205 | 11.3 | 27.4 | 0.00 | 0.00 | 0.00 | 35 | 1015.1 |
| 20260503234001 | 25 | 208 | 19.3 | 27.4 | 0.00 | 0.00 | 0.00 | 32 | 1015.0 |
| 20260503233501 | 26 | 200 | 19.3 | 27.4 | 0.00 | 0.00 | 0.00 | 32 | 1015.2 |
| 20260503233001 | 26 | 200 | 17.7 | 27.4 | 0.00 | 0.00 | 0.00 | 33 | 1015.2 |
| 20260503231501 | 26 | 208 | 16.1 | 25.7 | 0.00 | 0.00 | 0.00 | 32 | 1015.3 |
| 20260503231001 | 26 | 189 | 20.9 | 20.9 | 0.00 | 0.00 | 0.00 | 31 | 1015.3 |
| 20260503230501 | 26 | 205 | 16.1 | 25.7 | 0.00 | 0.00 | 0.00 | 31 | 1015.3 |
| 20260503230001 | 26 | 189 | 19.3 | 30.6 | 0.00 | 0.00 | 0.00 | 30 | 1015.3 |
| 20260503225501 | 26 | 214 | 25.7 | 30.6 | 0.00 | 0.00 | 0.00 | 31 | 1015.3 |
| 20260503225001 | 26 | 205 | 16.1 | 29.0 | 0.00 | 0.00 | 0.00 | 31 | 1015.4 |
| 20260503224531 | 26 | 197 | 25.7 | 30.6 | 0.00 | 0.00 | 0.00 | 29 | 1015.3 |
| 20260503224003 | 26 | 199 | 22.5 | 30.6 | 0.00 | 0.00 | 0.00 | 30 | 1015.4 |
| 20260503223031 | 26 | 193 | 17.7 | 32.2 | 0.00 | 0.00 | 0.00 | 31 | 1015.5 |
| 20260503222531 | 26 | 195 | 14.5 | 32.2 | 0.00 | 0.00 | 0.00 | 31 | 1015.5 |
| 20260503222001 | 26 | 203 | 20.9 | 30.6 | 0.00 | 0.00 | 0.00 | 30 | 1015.5 |
| 20260503221502 | 26 | 226 | 22.5 | 27.4 | 0.00 | 0.00 | 0.00 | 31 | 1015.5 |
| 20260503221001 | 26 | 204 | 17.7 | 30.6 | 0.00 | 0.00 | 0.00 | 30 | 1015.6 |
| 20260503220532 | 26 | 191 | 16.1 | 37.0 | 0.00 | 0.00 | 0.00 | 31 | 1015.7 |
| 20260503220001 | 26 | 180 | 14.5 | 37.0 | 0.00 | 0.00 | 0.00 | 30 | 1015.8 |
| 20260503215502 | 26 | 216 | 20.9 | 32.2 | 0.00 | 0.00 | 0.00 | 31 | 1015.9 |
| 20260503215001 | 26 | 209 | 25.7 | 29.0 | 0.00 | 0.00 | 0.00 | 31 | 1015.9 |
| 20260503214531 | 26 | 207 | 17.7 | 27.4 | 0.00 | 0.00 | 0.00 | 31 | 1016.0 |
| 20260503214001 | 26 | 201 | 20.9 | 29.0 | 0.00 | 0.00 | 0.00 | 29 | 1016.1 |
| 20260503213002 | 26 | 205 | 20.9 | 30.6 | 0.00 | 0.00 | 0.00 | 32 | 1016.3 |
| 20260503212501 | 26 | 196 | 24.1 | 27.4 | 0.00 | 0.00 | 0.00 | 32 | 1016.3 |
| 20260503211031 | 26 | 231 | 16.1 | 29.0 | 0.00 | 0.00 | 0.00 | 33 | 1016.6 |
| 20260503210501 | 26 | 222 | 27.4 | 29.0 | 0.00 | 0.00 | 0.00 | 31 | 1016.6 |
| 20260503210001 | 26 | 204 | 17.7 | 29.0 | 0.00 | 0.00 | 0.00 | 33 | 1016.8 |
| 20260503205531 | 26 | 205 | 17.7 | 29.0 | 0.00 | 0.00 | 0.00 | 32 | 1016.9 |
| 20260503205031 | 26 | 207 | 20.9 | 38.6 | 0.00 | 0.00 | 0.00 | 32 | 1016.9 |
| 20260503204001 | 26 | 223 | 25.7 | 29.0 | 0.00 | 0.00 | 0.00 | 32 | 1017.0 |
| 20260503203531 | 26 | 220 | 25.7 | 29.0 | 0.00 | 0.00 | 0.00 | 30 | 1017.2 |
| 20260503203001 | 26 | 223 | 14.5 | 25.7 | 0.00 | 0.00 | 0.00 | 31 | 1017.4 |
| 20260503202531 | 26 | 235 | 9.7 | 30.6 | 0.00 | 0.00 | 0.00 | 34 | 1017.5 |
| 20260503202031 | 26 | 226 | 30.6 | 30.6 | 0.00 | 0.00 | 0.00 | 32 | 1017.4 |
| 20260503201502 | 26 | 187 | 19.3 | 27.4 | 0.00 | 0.00 | 0.00 | 31 | 1017.5 |
| 20260503200532 | 26 | 222 | 17.7 | 30.6 | 0.00 | 0.00 | 0.00 | 32 | 1017.7 |
| 20260503200032 | 26 | 241 | 24.1 | 30.6 | 0.00 | 0.00 | 0.00 | 30 | 1017.7 |
| 20260503195501 | 26 | 200 | 17.7 | 32.2 | 0.00 | 0.00 | 0.00 | 30 | 1017.8 |
| 20260503195001 | 26 | 220 | 27.4 | 40.2 | 0.00 | 0.00 | 0.00 | 31 | 1017.8 |
| 20260503194033 | 26 | 224 | 20.9 | 37.0 | 0.00 | 0.00 | 0.00 | 32 | 1018.1 |
| 20260503193502 | 26 | 239 | 32.2 | 37.0 | 0.00 | 0.00 | 0.00 | 36 | 1018.1 |
| 20260503193001 | 26 | 200 | 24.1 | 33.8 | 0.00 | 0.00 | 0.00 | 33 | 1018.2 |
| 20260503192502 | 26 | 247 | 17.7 | 32.2 | 0.00 | 0.00 | 0.00 | 38 | 1018.3 |
| 20260503191002 | 26 | 226 | 20.9 | 33.8 | 0.00 | 0.00 | 0.00 | 37 | 1018.5 |
| 20260503190501 | 26 | 233 | 24.1 | 37.0 | 0.00 | 0.00 | 0.00 | 37 | 1018.6 |
| 20260503190002 | 26 | 222 | 29.0 | 37.0 | 0.00 | 0.00 | 0.00 | 34 | 1018.6 |
| 20260503184502 | 26 | 252 | 24.1 | 32.2 | 0.00 | 0.00 | 0.00 | 38 | 1018.8 |
| 20260503184001 | 25 | 229 | 24.1 | 32.2 | 0.00 | 0.00 | 0.00 | 37 | 1018.9 |
| 20260503183001 | 25 | 232 | 24.1 | 30.6 | 0.00 | 0.00 | 0.00 | 37 | 1019.1 |
| 20260503182502 | 25 | 218 | 25.7 | 33.8 | 0.00 | 0.00 | 0.00 | 36 | 1019.1 |
| 20260503181502 | 25 | 250 | 17.7 | 33.8 | 0.00 | 0.00 | 0.00 | 40 | 1019.3 |
| 20260503180501 | 25 | 270 | 20.9 | 32.2 | 0.00 | 0.00 | 0.00 | 42 | 1019.4 |
| 20260503175532 | 25 | 230 | 25.7 | 33.8 | 0.00 | 0.00 | 0.00 | 41 | 1019.6 |
| 20260503175001 | 25 | 237 | 19.3 | 33.8 | 0.00 | 0.00 | 0.00 | 42 | 1019.7 |
| 20260503174501 | 25 | 248 | 24.1 | 30.6 | 0.00 | 0.00 | 0.00 | 42 | 1019.8 |
| 20260503174002 | 25 | 259 | 19.3 | 27.4 | 0.00 | 0.00 | 0.00 | 41 | 1019.9 |
| 20260503173502 | 25 | 238 | 20.9 | 29.0 | 0.00 | 0.00 | 0.00 | 40 | 1020.0 |
| 20260503173001 | 25 | 267 | 24.1 | 32.2 | 0.00 | 0.00 | 0.00 | 41 | 1020.0 |
| 20260503172502 | 25 | 237 | 25.7 | 32.2 | 0.00 | 0.00 | 0.00 | 41 | 1020.0 |
| 20260503172001 | 25 | 264 | 19.3 | 32.2 | 0.00 | 0.00 | 0.00 | 42 | 1020.1 |
| 20260503171502 | 25 | 221 | 20.9 | 30.6 | 0.00 | 0.00 | 0.00 | 42 | 1020.1 |
| 20260503171001 | 25 | 217 | 29.0 | 30.6 | 0.00 | 0.00 | 0.00 | 41 | 1020.3 |
| 20260503170501 | 25 | 260 | 24.1 | 25.7 | 0.00 | 0.00 | 0.00 | 41 | 1020.4 |
| 20260503150531 | 21 | 242 | 25.7 | 33.8 | 0.00 | 0.00 | 0.00 | 49 | 1020.7 |
| 20260503130501 | 14 | 219 | 11.3 | 14.5 | 0.00 | 0.00 | 0.00 | 75 | 1020.6 |
| 20260503110502 | 12 | 223 | 11.3 | 12.9 | 0.00 | 0.00 | 0.00 | 77 | 1019.7 |
| 20260503090502 | 13 | 228 | 9.7 | 11.3 | 0.00 | 0.00 | 0.00 | 73 | 1019.7 |
| 20260503081502 | 13 | 236 | 11.3 | 14.5 | 0.00 | 0.00 | 0.00 | 74 | 1019.6 |
| 20260503081002 | 13 | 236 | 12.9 | 14.5 | 0.00 | 0.00 | 0.00 | 74 | 1019.6 |
| 20260503080502 | 13 | 232 | 11.3 | 12.9 | 0.00 | 0.00 | 0.00 | 76 | 1019.6 |
| 20260503072502 | 13 | 233 | 12.9 | 14.5 | 0.00 | 0.00 | 0.00 | 75 | 1019.9 |
| 20260503072002 | 13 | 235 | 12.9 | 14.5 | 0.00 | 0.00 | 0.00 | 75 | 1019.9 |
| 20260503071502 | 13 | 228 | 12.9 | 14.5 | 0.00 | 0.00 | 0.00 | 74 | 1019.9 |
| 20260503071002 | 13 | 227 | 12.9 | 14.5 | 0.00 | 0.00 | 0.00 | 74 | 1019.9 |
| 20260503070502 | 14 | 228 | 12.9 | 14.5 | 0.00 | 0.00 | 0.00 | 73 | 1019.9 |
| 20260503054502 | 15 | 232 | 12.9 | 12.9 | 0.00 | 0.00 | 0.00 | 67 | 1019.8 |
| 20260503054002 | 15 | 231 | 11.3 | 11.3 | 0.00 | 0.00 | 0.00 | 66 | 1019.8 |
| 20260503053502 | 16 | 225 | 11.3 | 11.3 | 0.00 | 0.00 | 0.00 | 65 | 1019.7 |
| 20260503053002 | 16 | 225 | 11.3 | 11.3 | 0.00 | 0.00 | 0.00 | 65 | 1019.7 |
| 20260503052502 | 16 | 228 | 11.3 | 11.3 | 0.00 | 0.00 | 0.00 | 65 | 1019.7 |
| 20260503052002 | 16 | 231 | 11.3 | 11.3 | 0.00 | 0.00 | 0.00 | 66 | 1019.6 |
| 20260503051002 | 16 | 232 | 11.3 | 11.3 | 0.00 | 0.00 | 0.00 | 65 | 1019.6 |
| 20260503050503 | 16 | 232 | 11.3 | 11.3 | 0.00 | 0.00 | 0.00 | 64 | 1019.6 |
| 20260503050002 | 16 | 235 | 11.3 | 11.3 | 0.00 | 0.00 | 0.00 | 64 | 1019.6 |
| 20260503045502 | 16 | 233 | 11.3 | 11.3 | 0.00 | 0.00 | 0.00 | 64 | 1019.6 |
| 20260503045002 | 16 | 229 | 11.3 | 11.3 | 0.00 | 0.00 | 0.00 | 64 | 1019.6 |
| 20260503044532 | 16 | 230 | 11.3 | 11.3 | 0.00 | 0.00 | 0.00 | 64 | 1019.6 |
| 20260503043502 | 16 | 231 | 11.3 | 12.9 | 0.00 | 0.00 | 0.00 | 64 | 1019.6 |
| 20260503043002 | 16 | 229 | 11.3 | 12.9 | 0.00 | 0.00 | 0.00 | 64 | 1019.6 |
| 20260503042534 | 16 | 228 | 11.3 | 12.9 | 0.00 | 0.00 | 0.00 | 63 | 1019.6 |
| 20260503042032 | 16 | 229 | 11.3 | 12.9 | 0.00 | 0.00 | 0.00 | 63 | 1019.6 |
| 20260503040532 | 17 | 229 | 11.3 | 12.9 | 0.00 | 0.00 | 0.00 | 62 | 1019.6 |
| 20260503040002 | 17 | 225 | 11.3 | 11.3 | 0.00 | 0.00 | 0.00 | 61 | 1019.6 |
| 20260503035502 | 17 | 223 | 11.3 | 12.9 | 0.00 | 0.00 | 0.00 | 61 | 1019.6 |
| 20260503035002 | 17 | 223 | 11.3 | 12.9 | 0.00 | 0.00 | 0.00 | 61 | 1019.6 |
| 20260503034502 | 17 | 230 | 11.3 | 11.3 | 0.00 | 0.00 | 0.00 | 61 | 1019.6 |
| 20260503034002 | 17 | 228 | 9.7 | 11.3 | 0.00 | 0.00 | 0.00 | 61 | 1019.6 |
| 20260503033502 | 17 | 223 | 11.3 | 11.3 | 0.00 | 0.00 | 0.00 | 61 | 1019.6 |
| 20260503033002 | 17 | 225 | 11.3 | 11.3 | 0.00 | 0.00 | 0.00 | 60 | 1019.6 |
| 20260503032502 | 17 | 221 | 9.7 | 11.3 | 0.00 | 0.00 | 0.00 | 60 | 1019.6 |
| 20260503032002 | 17 | 226 | 11.3 | 11.3 | 0.00 | 0.00 | 0.00 | 60 | 1019.6 |
| 20260503031502 | 17 | 229 | 9.7 | 11.3 | 0.00 | 0.00 | 0.00 | 59 | 1019.5 |
| 20260503030502 | 18 | 229 | 9.7 | 11.3 | 0.00 | 0.00 | 0.00 | 58 | 1019.4 |
| 20260503030002 | 18 | 218 | 9.7 | 9.7 | 0.00 | 0.00 | 0.00 | 57 | 1019.3 |
| 20260503025502 | 18 | 226 | 9.7 | 9.7 | 0.00 | 0.00 | 0.00 | 57 | 1019.3 |
| 20260503025032 | 18 | 232 | 9.7 | 9.7 | 0.00 | 0.00 | 0.00 | 56 | 1019.3 |
| 20260503024503 | 18 | 217 | 9.7 | 9.7 | 0.00 | 0.00 | 0.00 | 56 | 1019.2 |
| 20260503024002 | 18 | 217 | 9.7 | 9.7 | 0.00 | 0.00 | 0.00 | 55 | 1019.2 |
| 20260503022002 | 19 | 216 | 8.0 | 8.0 | 0.00 | 0.00 | 0.00 | 54 | 1019.0 |
| 20260503021502 | 19 | 225 | 8.0 | 8.0 | 0.00 | 0.00 | 0.00 | 54 | 1019.0 |
| 20260503021002 | 19 | 228 | 8.0 | 8.0 | 0.00 | 0.00 | 0.00 | 54 | 1019.0 |
| 20260503020502 | 20 | 231 | 8.0 | 8.0 | 0.00 | 0.00 | 0.00 | 54 | 1019.0 |
| 20260503020002 | 20 | 216 | 8.0 | 8.0 | 0.00 | 0.00 | 0.00 | 53 | 1018.9 |
| 20260503015002 | 20 | 220 | 8.0 | 8.0 | 0.00 | 0.00 | 0.00 | 52 | 1018.9 |
| 20260503014502 | 20 | 227 | 8.0 | 8.0 | 0.00 | 0.00 | 0.00 | 52 | 1018.9 |
| 20260503014002 | 20 | 225 | 8.0 | 8.0 | 0.00 | 0.00 | 0.00 | 52 | 1018.9 |
| 20260503013502 | 20 | 228 | 8.0 | 8.0 | 0.00 | 0.00 | 0.00 | 52 | 1018.8 |
| 20260503012002 | 21 | 236 | 4.8 | 6.4 | 0.00 | 0.00 | 0.00 | 50 | 1018.7 |
| 20260503011502 | 21 | 232 | 4.8 | 6.4 | 0.00 | 0.00 | 0.00 | 49 | 1018.7 |
| 20260503011003 | 21 | 225 | 6.4 | 6.4 | 0.00 | 0.00 | 0.00 | 48 | 1018.6 |
| 20260503005502 | 22 | 183 | 4.8 | 6.4 | 0.00 | 0.00 | 0.00 | 48 | 1018.6 |
| 20260503005002 | 22 | 233 | 4.8 | 8.0 | 0.00 | 0.00 | 0.00 | 47 | 1018.5 |
| 20260503004502 | 22 | 218 | 6.4 | 8.0 | 0.00 | 0.00 | 0.00 | 45 | 1018.5 |
| 20260503004034 | 22 | 235 | 4.8 | 8.0 | 0.00 | 0.00 | 0.00 | 44 | 1018.5 |
| 20260503003502 | 22 | 226 | 4.8 | 8.0 | 0.00 | 0.00 | 0.00 | 44 | 1018.5 |
| 20260503003002 | 22 | 228 | 6.4 | 9.7 | 0.00 | 0.00 | 0.00 | 43 | 1018.5 |
| 20260503002502 | 22 | 226 | 8.0 | 11.3 | 0.00 | 0.00 | 0.00 | 43 | 1018.5 |
| 20260503002002 | 23 | 248 | 8.0 | 12.9 | 0.00 | 0.00 | 0.00 | 42 | 1018.5 |
| 20260503001002 | 23 | 271 | 11.3 | 12.9 | 0.00 | 0.00 | 0.00 | 38 | 1018.4 |